User: anonymous   Login
Location: B?dargowo
(53.3916°N, 14.4413°E)
Time: 23:08:09
(UTC+00:00)
Language:

CZ-4B DEB - Orbit

View from above orbital plane
View from above orbital plane
View from above satellite
View from above satellite

Ground track
Ground track

The orbit data is extracted from the following two-line orbital elements,

1 38184U 10051E   24052.42203055  .00013003  00000-0  16894-2 0  9992
2 38184  97.7178 221.6390 0128352 278.0825  80.5840 14.75159127709059
Epoch (UTC): 21 February 2024 10:07:43
Eccentricity: 0.0128352
inclination: 97.7178°
perigee height: 554 km
apogee height: 735 km
right ascension of ascending node: 221.6390°
argument of perigee: 278.0825°
revolutions per day: 14.75159127
mean anomaly at epoch: 80.5840°
orbit number at epoch: 70905

The dashed part of the orbit path shows where the satellite is in the earth's shadow,  

DLR